Overview Statistics Trail Chart Weather Telemetry Raw packets
 

This is the latest recevied weather packets stored in our database for station/object KO4LCK. If no packets are shown the sender has not sent any weather packets the latest 10 day(s).

<< 1 2 3 4 5 6 7 >>
Time Temp. Humidity Pressure Rain* Wind** Luminosity Snow
1788637485 38.89° C 38% 1012.7 hPa 0 mm - 666 W/m² -
1788637181 37.22° C 41% 1012.6 hPa 0 mm - 681 W/m² -
1788636880 37.78° C 40% 1012.6 hPa 0 mm - 198 W/m² -
1788636576 38.89° C 37% 1012.8 hPa 0 mm - 136 W/m² -
1788636271 38.33° C 38% 1012.9 hPa 0 mm - 707 W/m² -
1788635966 37.78° C 39% 1012.9 hPa 0 mm - 699 W/m² -
1788635660 38.89° C 38% 1013.1 hPa 0 mm - 700 W/m² -
1788635360 38.33° C 38% 1013.1 hPa 0 mm - 698 W/m² -
1788635058 37.78° C 40% 1013.2 hPa 0 mm - 715 W/m² -
1788634756 37.22° C 42% 1013.2 hPa 0 mm - 717 W/m² -
1788634452 37.78° C 42% 1013.4 hPa 0 mm - 720 W/m² -
1788634151 38.89° C 40% 1013.6 hPa 0 mm - 678 W/m² -
1788633851 39.44° C 40% 1013.4 hPa 0 mm - 752 W/m² -
1788633549 38.89° C 41% 1013.5 hPa 0 mm - 749 W/m² -
1788633250 38.33° C 41% 1013.7 hPa 0 mm - 733 W/m² -
1788632939 37.78° C 43% 1013.6 hPa 0 mm - 730 W/m² -
1788632638 38.33° C 41% 1013.9 hPa 0 mm - 756 W/m² -
1788632335 37.78° C 42% 1014 hPa 0 mm - 751 W/m² -
1788632034 36.67° C 41% 1014 hPa 0 mm - 748 W/m² -
1788631733 37.22° C 43% 1013.9 hPa 0 mm - 752 W/m² -
1788631448 37.78° C 45% 1014.1 hPa 0 mm - 752 W/m² -
1788631124 36.67° C 45% 1014 hPa 0 mm - 742 W/m² -
1788630823 36.67° C 47% 1014.2 hPa 0 mm - 747 W/m² -
1788630518 37.22° C 47% 1014.3 hPa 0 mm - 758 W/m² -
1788630215 37.22° C 44% 1014.4 hPa 0 mm - 751 W/m² -

* Rain latest hour (hover to see other rain measurements)
** Current wind speed in m/s (hover to see current wind gust speed)